Data supplied by UK-AIR on 6/6/2017
All Data GMT hour ending 
Status: R =Ratified P=Provisional,P*=As supplied
,,Leominster,,,,,,,,,,,,,,,,,,,,,,,
Date,time,"Nitric oxide",status,unit,"Nitrogen dioxide",status,unit,"Nitrogen oxides as nitrogen dioxide",status,unit,"Ozone",status,unit
 
01-01-2016,01:00,0.19167,R,ugm-3,4.05004,R,ugm-3,4.34393,R,ugm-3,48.22942,R,ugm-3
01-01-2016,02:00,0.61118,R,ugm-3,13.91822,R,ugm-3,14.85534,R,ugm-3,26.49292,R,ugm-3
01-01-2016,03:00,1.36611,R,ugm-3,17.50989,R,ugm-3,19.60456,R,ugm-3,19.95700,R,ugm-3
01-01-2016,04:00,1.07860,R,ugm-3,20.21465,R,ugm-3,21.86848,R,ugm-3,14.31915,R,ugm-3
01-01-2016,05:00,1.00657,R,ugm-3,16.01719,R,ugm-3,17.56058,R,ugm-3,10.57721,R,ugm-3
01-01-2016,06:00,0.43125,R,ugm-3,10.54887,R,ugm-3,11.21012,R,ugm-3,22.15227,R,ugm-3
01-01-2016,07:00,2.76869,R,ugm-3,16.51922,R,ugm-3,20.76449,R,ugm-3,18.01119,R,ugm-3
01-01-2016,08:00,3.59534,R,ugm-3,20.16636,R,ugm-3,25.67914,R,ugm-3,12.57291,R,ugm-3
01-01-2016,09:00,1.79767,R,ugm-3,21.26604,R,ugm-3,24.02243,R,ugm-3,14.51872,R,ugm-3
01-01-2016,10:00,8.23374,R,ugm-3,29.67578,R,ugm-3,42.30068,R,ugm-3,11.32560,R,ugm-3
01-01-2016,11:00,1.97728,R,ugm-3,11.93400,R,ugm-3,14.96579,R,ugm-3,42.75787,R,ugm-3
01-01-2016,12:00,0.82665,R,ugm-3,7.29188,R,ugm-3,8.55939,R,ugm-3,49.49336,R,ugm-3
01-01-2016,13:00,0.71876,R,ugm-3,6.90556,R,ugm-3,8.00764,R,ugm-3,53.73422,R,ugm-3
01-01-2016,14:00,0.39571,R,ugm-3,6.73726,R,ugm-3,7.34400,R,ugm-3,56.17896,R,ugm-3
01-01-2016,15:00,0.68290,R,ugm-3,7.84460,R,ugm-3,8.89169,R,ugm-3,52.78627,R,ugm-3
01-01-2016,16:00,0.93454,R,ugm-3,9.99855,R,ugm-3,11.43149,R,ugm-3,50.49121,R,ugm-3
01-01-2016,17:00,0.79079,R,ugm-3,9.16948,R,ugm-3,10.38201,R,ugm-3,49.89250,R,ugm-3
01-01-2016,18:00,0.46743,R,ugm-3,8.00907,R,ugm-3,8.72578,R,ugm-3,53.83401,R,ugm-3
01-01-2016,19:00,0.46743,R,ugm-3,6.24097,R,ugm-3,6.95768,R,ugm-3,56.72777,R,ugm-3
01-01-2016,20:00,0.50329,R,ugm-3,5.30288,R,ugm-3,6.07458,R,ugm-3,60.17036,R,ugm-3
01-01-2016,21:00,0.28781,R,ugm-3,4.86014,R,ugm-3,5.30145,R,ugm-3,63.11401,R,ugm-3
01-01-2016,22:00,0.53915,R,ugm-3,6.02055,R,ugm-3,6.84723,R,ugm-3,59.67143,R,ugm-3
01-01-2016,23:00,0.61087,R,ugm-3,5.19339,R,ugm-3,6.13004,R,ugm-3,57.62584,R,ugm-3
01-01-2016,24:00,0.25164,R,ugm-3,4.91608,R,ugm-3,5.30193,R,ugm-3,57.57595,R,ugm-3
02-01-2016,01:00,0.38375,R,ugm-3,4.12399,R,ugm-3,4.71240,R,ugm-3,57.27659,R,ugm-3
02-01-2016,02:00,0.50329,R,ugm-3,4.08797,R,ugm-3,4.85966,R,ugm-3,54.18326,R,ugm-3
02-01-2016,03:00,0.35985,R,ugm-3,3.09347,R,ugm-3,3.64523,R,ugm-3,54.33293,R,ugm-3
02-01-2016,04:00,0.32367,R,ugm-3,3.14845,R,ugm-3,3.64475,R,ugm-3,54.13336,R,ugm-3
02-01-2016,05:00,0.14344,R,ugm-3,3.03753,R,ugm-3,3.25747,R,ugm-3,53.23530,R,ugm-3
02-01-2016,06:00,0.32399,R,ugm-3,3.14845,R,ugm-3,3.64523,R,ugm-3,51.28949,R,ugm-3
02-01-2016,07:00,0.43157,R,ugm-3,3.31436,R,ugm-3,3.97609,R,ugm-3,52.58670,R,ugm-3
02-01-2016,08:00,0.68259,R,ugm-3,4.30982,R,ugm-3,5.35643,R,ugm-3,49.24390,R,ugm-3
02-01-2016,09:00,0.53915,R,ugm-3,4.08845,R,ugm-3,4.91513,R,ugm-3,52.33723,R,ugm-3
02-01-2016,10:00,0.57501,R,ugm-3,5.35883,R,ugm-3,6.24049,R,ugm-3,55.33078,R,ugm-3
02-01-2016,11:00,0.75462,R,ugm-3,6.40879,R,ugm-3,7.56585,R,ugm-3,54.33293,R,ugm-3
02-01-2016,12:00,1.04243,R,ugm-3,8.89456,R,ugm-3,10.49293,R,ugm-3,55.23100,R,ugm-3
02-01-2016,13:00,0.86313,R,ugm-3,8.83766,R,ugm-3,10.16111,R,ugm-3,56.07917,R,ugm-3
02-01-2016,14:00,1.00688,R,ugm-3,11.59931,R,ugm-3,13.14318,R,ugm-3,50.84046,R,ugm-3
02-01-2016,15:00,0.93454,R,ugm-3,13.64282,R,ugm-3,15.07576,R,ugm-3,46.94884,R,ugm-3
02-01-2016,16:00,0.93454,R,ugm-3,18.06117,R,ugm-3,19.49411,R,ugm-3,40.91185,R,ugm-3
02-01-2016,17:00,1.04243,R,ugm-3,22.03726,R,ugm-3,23.63563,R,ugm-3,35.82282,R,ugm-3
02-01-2016,18:00,1.51017,R,ugm-3,24.08124,R,ugm-3,26.39680,R,ugm-3,27.93980,R,ugm-3
02-01-2016,19:00,1.47400,R,ugm-3,20.49196,R,ugm-3,22.75206,R,ugm-3,26.04389,R,ugm-3
02-01-2016,20:00,1.61775,R,ugm-3,21.92777,R,ugm-3,24.40828,R,ugm-3,18.11098,R,ugm-3
02-01-2016,21:00,1.04243,R,ugm-3,14.69230,R,ugm-3,16.29068,R,ugm-3,24.44733,R,ugm-3
02-01-2016,22:00,0.53915,R,ugm-3,10.49437,R,ugm-3,11.32104,R,ugm-3,27.39098,R,ugm-3
02-01-2016,23:00,0.50329,R,ugm-3,6.68419,R,ugm-3,7.45588,R,ugm-3,27.69034,R,ugm-3
02-01-2016,24:00,0.17992,R,ugm-3,4.74969,R,ugm-3,5.02557,R,ugm-3,37.36948,R,ugm-3
03-01-2016,01:00,0.23990,R,ugm-3,2.79799,R,ugm-3,3.16583,R,ugm-3,44.10497,R,ugm-3
03-01-2016,02:00,0.43157,R,ugm-3,2.59622,R,ugm-3,3.25794,R,ugm-3,60.22025,R,ugm-3
03-01-2016,03:00,0.21578,R,ugm-3,1.82309,R,ugm-3,2.15395,R,ugm-3,62.36563,R,ugm-3
03-01-2016,04:00,0.32399,R,ugm-3,1.82309,R,ugm-3,2.31986,R,ugm-3,65.60864,R,ugm-3
03-01-2016,05:00,0.17992,R,ugm-3,3.09299,R,ugm-3,3.36887,R,ugm-3,57.22670,R,ugm-3
03-01-2016,06:00,0.28781,R,ugm-3,3.75567,R,ugm-3,4.19698,R,ugm-3,63.66283,R,ugm-3
03-01-2016,07:00,0.32399,R,ugm-3,2.76165,R,ugm-3,3.25842,R,ugm-3,64.81036,R,ugm-3
03-01-2016,08:00,0.32367,R,ugm-3,2.26536,R,ugm-3,2.76165,R,ugm-3,68.45251,R,ugm-3
03-01-2016,09:00,0.32367,R,ugm-3,2.76117,R,ugm-3,3.25747,R,ugm-3,69.25079,R,ugm-3
03-01-2016,10:00,0.32367,R,ugm-3,3.14845,R,ugm-3,3.64475,R,ugm-3,65.70842,R,ugm-3
03-01-2016,11:00,0.39571,R,ugm-3,3.36983,R,ugm-3,3.97657,R,ugm-3,66.40692,R,ugm-3
03-01-2016,12:00,0.46743,R,ugm-3,3.14941,R,ugm-3,3.86612,R,ugm-3,66.75617,R,ugm-3
03-01-2016,13:00,0.46743,R,ugm-3,5.35835,R,ugm-3,6.07506,R,ugm-3,59.37208,R,ugm-3
03-01-2016,14:00,0.28750,R,ugm-3,4.30791,R,ugm-3,4.74874,R,ugm-3,63.31358,R,ugm-3
03-01-2016,15:00,0.39539,R,ugm-3,3.14941,R,ugm-3,3.75567,R,ugm-3,67.15531,R,ugm-3
03-01-2016,16:00,0.32336,R,ugm-3,3.20392,R,ugm-3,3.69973,R,ugm-3,64.16176,R,ugm-3
03-01-2016,17:00,0.14375,R,ugm-3,3.14750,R,ugm-3,3.36791,R,ugm-3,67.60434,R,ugm-3
03-01-2016,18:00,0.35985,R,ugm-3,5.13602,R,ugm-3,5.68778,R,ugm-3,54.58240,R,ugm-3
03-01-2016,19:00,0.43157,R,ugm-3,8.00859,R,ugm-3,8.67032,R,ugm-3,51.88820,R,ugm-3
03-01-2016,20:00,0.17992,R,ugm-3,11.21108,R,ugm-3,11.48695,R,ugm-3,51.28949,R,ugm-3
03-01-2016,21:00,0.25196,R,ugm-3,7.45493,R,ugm-3,7.84125,R,ugm-3,53.33508,R,ugm-3
03-01-2016,22:00,0.10789,R,ugm-3,8.89121,R,ugm-3,9.05664,R,ugm-3,53.33508,R,ugm-3
03-01-2016,23:00,0.21578,R,ugm-3,6.79320,R,ugm-3,7.12406,R,ugm-3,58.42412,R,ugm-3
03-01-2016,24:00,0.43125,R,ugm-3,8.17403,R,ugm-3,8.83527,R,ugm-3,49.49336,R,ugm-3
04-01-2016,01:00,0.33552,R,ugm-3,6.99529,R,ugm-3,7.50975,R,ugm-3,48.82813,R,ugm-3
04-01-2016,02:00,0.32336,R,ugm-3,4.58522,R,ugm-3,5.08103,R,ugm-3,54.98154,R,ugm-3
04-01-2016,03:00,0.39571,R,ugm-3,5.52282,R,ugm-3,6.12956,R,ugm-3,53.08562,R,ugm-3
04-01-2016,04:00,0.39571,R,ugm-3,4.58426,R,ugm-3,5.19100,R,ugm-3,56.57810,R,ugm-3
04-01-2016,05:00,0.21547,R,ugm-3,3.20392,R,ugm-3,3.53430,R,ugm-3,57.12691,R,ugm-3
04-01-2016,06:00,0.46743,R,ugm-3,3.92206,R,ugm-3,4.63877,R,ugm-3,55.18111,R,ugm-3
04-01-2016,07:00,0.32367,R,ugm-3,4.30791,R,ugm-3,4.80420,R,ugm-3,59.62154,R,ugm-3
04-01-2016,08:00,1.18649,R,ugm-3,8.45182,R,ugm-3,10.27108,R,ugm-3,57.17681,R,ugm-3
04-01-2016,09:00,1.22204,R,ugm-3,12.59477,R,ugm-3,14.46854,R,ugm-3,49.24390,R,ugm-3
04-01-2016,10:00,0.86313,R,ugm-3,10.27347,R,ugm-3,11.59692,R,ugm-3,51.73852,R,ugm-3
04-01-2016,11:00,3.12792,R,ugm-3,18.01145,R,ugm-3,22.80752,R,ugm-3,45.60175,R,ugm-3
04-01-2016,12:00,2.51674,R,ugm-3,13.70163,R,ugm-3,17.56058,R,ugm-3,57.57595,R,ugm-3
04-01-2016,13:00,2.62463,R,ugm-3,15.74561,R,ugm-3,19.76999,R,ugm-3,51.68863,R,ugm-3
04-01-2016,14:00,1.15032,R,ugm-3,12.26247,R,ugm-3,14.02628,R,ugm-3,56.32863,R,ugm-3
04-01-2016,15:00,2.55260,R,ugm-3,20.10850,R,ugm-3,24.02243,R,ugm-3,45.45207,R,ugm-3
04-01-2016,16:00,2.94799,R,ugm-3,23.03654,R,ugm-3,27.55673,R,ugm-3,44.75357,R,ugm-3
04-01-2016,17:00,2.19338,R,ugm-3,24.41450,R,ugm-3,27.77763,R,ugm-3,39.36518,R,ugm-3
04-01-2016,18:00,0.93485,R,ugm-3,16.90076,R,ugm-3,18.33418,R,ugm-3,45.20261,R,ugm-3
04-01-2016,19:00,0.32367,R,ugm-3,11.87376,R,ugm-3,12.37005,R,ugm-3,50.54110,R,ugm-3
04-01-2016,20:00,0.35985,R,ugm-3,10.93520,R,ugm-3,11.48695,R,ugm-3,52.73637,R,ugm-3
04-01-2016,21:00,0.28781,R,ugm-3,7.62083,R,ugm-3,8.06214,R,ugm-3,53.88390,R,ugm-3
04-01-2016,22:00,0.50297,R,ugm-3,8.17498,R,ugm-3,8.94620,R,ugm-3,52.63659,R,ugm-3
04-01-2016,23:00,0.39539,R,ugm-3,7.73272,R,ugm-3,8.33898,R,ugm-3,55.13121,R,ugm-3
04-01-2016,24:00,0.25196,R,ugm-3,4.97011,R,ugm-3,5.35643,R,ugm-3,57.42627,R,ugm-3
05-01-2016,01:00,0.14344,R,ugm-3,4.93361,R,ugm-3,5.15355,R,ugm-3,50.82383,R,ugm-3
05-01-2016,02:00,0.32336,R,ugm-3,3.86660,R,ugm-3,4.36241,R,ugm-3,55.03143,R,ugm-3
05-01-2016,03:00,0.32399,R,ugm-3,7.67582,R,ugm-3,8.17259,R,ugm-3,47.29809,R,ugm-3
05-01-2016,04:00,0.61087,R,ugm-3,7.78913,R,ugm-3,8.72578,R,ugm-3,38.01809,R,ugm-3
05-01-2016,05:00,0.17961,R,ugm-3,6.13052,R,ugm-3,6.40592,R,ugm-3,43.65594,R,ugm-3
05-01-2016,06:00,0.21578,R,ugm-3,9.71933,R,ugm-3,10.05019,R,ugm-3,40.56260,R,ugm-3
05-01-2016,07:00,0.61087,R,ugm-3,12.75877,R,ugm-3,13.69541,R,ugm-3,33.37808,R,ugm-3
05-01-2016,08:00,0.61087,R,ugm-3,17.17712,R,ugm-3,18.11377,R,ugm-3,39.51486,R,ugm-3
05-01-2016,09:00,0.93454,R,ugm-3,19.33107,R,ugm-3,20.76401,R,ugm-3,37.96819,R,ugm-3
05-01-2016,10:00,2.04963,R,ugm-3,24.13718,R,ugm-3,27.27990,R,ugm-3,27.98969,R,ugm-3
05-01-2016,11:00,2.08549,R,ugm-3,19.22254,R,ugm-3,22.42024,R,ugm-3,32.33034,R,ugm-3
05-01-2016,12:00,2.55260,R,ugm-3,17.73366,R,ugm-3,21.64759,R,ugm-3,37.21981,R,ugm-3
05-01-2016,13:00,2.15689,R,ugm-3,13.81160,R,ugm-3,17.11879,R,ugm-3,48.34583,R,ugm-3
05-01-2016,14:00,1.61775,R,ugm-3,13.80968,R,ugm-3,16.29020,R,ugm-3,43.75572,R,ugm-3
05-01-2016,15:00,1.65392,R,ugm-3,17.17903,R,ugm-3,19.71501,R,ugm-3,37.81852,R,ugm-3
05-01-2016,16:00,2.80424,R,ugm-3,23.58830,R,ugm-3,27.88808,R,ugm-3,30.73378,R,ugm-3
05-01-2016,17:00,1.79798,R,ugm-3,30.21176,R,ugm-3,32.96863,R,ugm-3,20.15657,R,ugm-3
05-01-2016,18:00,5.75255,R,ugm-3,39.05803,R,ugm-3,47.87848,R,ugm-3,13.22151,R,ugm-3
05-01-2016,19:00,2.66080,R,ugm-3,38.38722,R,ugm-3,42.46706,R,ugm-3,18.06109,R,ugm-3
05-01-2016,20:00,1.86970,R,ugm-3,31.81348,R,ugm-3,34.68032,R,ugm-3,16.31485,R,ugm-3
05-01-2016,21:00,1.36642,R,ugm-3,26.18021,R,ugm-3,28.27536,R,ugm-3,17.56216,R,ugm-3
05-01-2016,22:00,1.25853,R,ugm-3,27.78050,R,ugm-3,29.71021,R,ugm-3,18.36044,R,ugm-3
05-01-2016,23:00,2.76838,R,ugm-3,29.33201,R,ugm-3,33.57681,R,ugm-3,13.02194,R,ugm-3
05-01-2016,24:00,0.89899,R,ugm-3,21.09727,R,ugm-3,22.47570,R,ugm-3,29.18711,R,ugm-3
06-01-2016,01:00,0.47938,R,ugm-3,9.86786,R,ugm-3,10.60290,R,ugm-3,42.70798,R,ugm-3
06-01-2016,02:00,1.04274,R,ugm-3,14.69230,R,ugm-3,16.29115,R,ugm-3,19.05894,R,ugm-3
06-01-2016,03:00,1.51017,R,ugm-3,16.01862,R,ugm-3,18.33418,R,ugm-3,14.01979,R,ugm-3
06-01-2016,04:00,2.66049,R,ugm-3,17.18094,R,ugm-3,21.26031,R,ugm-3,10.22796,R,ugm-3
06-01-2016,05:00,2.94799,R,ugm-3,20.27537,R,ugm-3,24.79556,R,ugm-3,8.58151,R,ugm-3
06-01-2016,06:00,3.05589,R,ugm-3,21.15894,R,ugm-3,25.84457,R,ugm-3,11.02624,R,ugm-3
06-01-2016,07:00,22.54308,R,ugm-3,27.56104,R,ugm-3,62.12661,R,ugm-3,6.83527,R,ugm-3
06-01-2016,08:00,70.68449,R,ugm-3,34.48190,R,ugm-3,142.86327,R,ugm-3,6.23656,R,ugm-3
06-01-2016,09:00,48.17759,R,ugm-3,35.13980,R,ugm-3,109.01107,R,ugm-3,6.53592,R,ugm-3
06-01-2016,10:00,9.59953,R,ugm-3,23.60599,R,ugm-3,38.32507,R,ugm-3,8.13248,R,ugm-3
06-01-2016,11:00,15.49614,R,ugm-3,25.66432,R,ugm-3,49.42474,R,ugm-3,12.37334,R,ugm-3
06-01-2016,12:00,2.73252,R,ugm-3,10.61007,R,ugm-3,14.79988,R,ugm-3,27.49077,R,ugm-3
06-01-2016,13:00,1.18649,R,ugm-3,6.46473,R,ugm-3,8.28399,R,ugm-3,39.56475,R,ugm-3
06-01-2016,14:00,1.04274,R,ugm-3,7.23738,R,ugm-3,8.83623,R,ugm-3,38.86626,R,ugm-3
06-01-2016,15:00,1.11415,R,ugm-3,9.17044,R,ugm-3,10.87878,R,ugm-3,30.93335,R,ugm-3
06-01-2016,16:00,7.87389,R,ugm-3,28.18499,R,ugm-3,40.25813,R,ugm-3,14.31915,R,ugm-3
06-01-2016,17:00,5.75255,R,ugm-3,28.12379,R,ugm-3,36.94424,R,ugm-3,15.36689,R,ugm-3
06-01-2016,18:00,3.73909,R,ugm-3,26.18595,R,ugm-3,31.91915,R,ugm-3,18.41033,R,ugm-3
06-01-2016,19:00,1.07860,R,ugm-3,24.85294,R,ugm-3,26.50677,R,ugm-3,21.90281,R,ugm-3
06-01-2016,20:00,0.86251,R,ugm-3,27.28277,R,ugm-3,28.60526,R,ugm-3,21.00474,R,ugm-3
06-01-2016,21:00,0.57501,R,ugm-3,23.69301,R,ugm-3,24.57467,R,ugm-3,23.89851,R,ugm-3
06-01-2016,22:00,0.50329,R,ugm-3,17.94929,R,ugm-3,18.72098,R,ugm-3,30.68389,R,ugm-3
06-01-2016,23:00,0.50329,R,ugm-3,14.96675,R,ugm-3,15.73844,R,ugm-3,33.62755,R,ugm-3
06-01-2016,24:00,0.43157,R,ugm-3,13.86180,R,ugm-3,14.52353,R,ugm-3,36.37163,R,ugm-3
07-01-2016,01:00,0.38334,R,ugm-3,13.18223,R,ugm-3,13.77000,R,ugm-3,38.78310,R,ugm-3
07-01-2016,02:00,0.07172,R,ugm-3,7.28997,R,ugm-3,7.39994,R,ugm-3,59.02283,R,ugm-3
07-01-2016,03:00,0.32367,R,ugm-3,2.76165,R,ugm-3,3.25794,R,ugm-3,74.28993,R,ugm-3
07-01-2016,04:00,0.17961,R,ugm-3,2.54123,R,ugm-3,2.81663,R,ugm-3,71.24649,R,ugm-3
07-01-2016,05:00,0.17961,R,ugm-3,2.76165,R,ugm-3,3.03705,R,ugm-3,63.61294,R,ugm-3
07-01-2016,06:00,0.28781,R,ugm-3,5.08103,R,ugm-3,5.52234,R,ugm-3,55.23100,R,ugm-3
07-01-2016,07:00,0.43157,R,ugm-3,8.50537,R,ugm-3,9.16709,R,ugm-3,44.00519,R,ugm-3
07-01-2016,08:00,1.68978,R,ugm-3,21.15512,R,ugm-3,23.74608,R,ugm-3,34.27615,R,ugm-3
07-01-2016,09:00,1.18649,R,ugm-3,14.41690,R,ugm-3,16.23617,R,ugm-3,49.29379,R,ugm-3
07-01-2016,10:00,0.64704,R,ugm-3,6.73917,R,ugm-3,7.73128,R,ugm-3,69.00133,R,ugm-3
07-01-2016,11:00,1.04243,R,ugm-3,6.02246,R,ugm-3,7.62083,R,ugm-3,74.28993,R,ugm-3
07-01-2016,12:00,1.04243,R,ugm-3,5.30432,R,ugm-3,6.90269,R,ugm-3,75.63703,R,ugm-3
07-01-2016,13:00,0.79079,R,ugm-3,5.08343,R,ugm-3,6.29595,R,ugm-3,73.89079,R,ugm-3
07-01-2016,14:00,0.71876,R,ugm-3,5.13841,R,ugm-3,6.24049,R,ugm-3,66.95574,R,ugm-3
07-01-2016,15:00,0.57501,R,ugm-3,4.30886,R,ugm-3,5.19053,R,ugm-3,71.29638,R,ugm-3
07-01-2016,16:00,0.79079,R,ugm-3,5.74611,R,ugm-3,6.95863,R,ugm-3,67.15531,R,ugm-3
07-01-2016,17:00,0.61149,R,ugm-3,6.62777,R,ugm-3,7.56537,R,ugm-3,66.50670,R,ugm-3
07-01-2016,18:00,0.50329,R,ugm-3,5.41285,R,ugm-3,6.18455,R,ugm-3,70.69767,R,ugm-3
07-01-2016,19:00,0.46743,R,ugm-3,5.24790,R,ugm-3,5.96461,R,ugm-3,68.90154,R,ugm-3
07-01-2016,20:00,0.28781,R,ugm-3,4.63877,R,ugm-3,5.08008,R,ugm-3,63.21380,R,ugm-3
07-01-2016,21:00,0.25164,R,ugm-3,3.92110,R,ugm-3,4.30695,R,ugm-3,62.86455,R,ugm-3
07-01-2016,22:00,0.32367,R,ugm-3,4.03251,R,ugm-3,4.52880,R,ugm-3,63.01423,R,ugm-3
07-01-2016,23:00,0.32399,R,ugm-3,3.58976,R,ugm-3,4.08653,R,ugm-3,62.06627,R,ugm-3
07-01-2016,24:00,0.32367,R,ugm-3,3.25938,R,ugm-3,3.75567,R,ugm-3,63.76262,R,ugm-3
08-01-2016,01:00,0.23990,R,ugm-3,3.90341,R,ugm-3,4.27125,R,ugm-3,56.21222,R,ugm-3
08-01-2016,02:00,0.68352,R,ugm-3,10.93520,R,ugm-3,11.98325,R,ugm-3,44.95314,R,ugm-3
08-01-2016,03:00,0.17992,R,ugm-3,3.09251,R,ugm-3,3.36839,R,ugm-3,66.45681,R,ugm-3
08-01-2016,04:00,0.32399,R,ugm-3,6.68228,R,ugm-3,7.17905,R,ugm-3,54.63229,R,ugm-3
08-01-2016,05:00,0.32399,R,ugm-3,6.90365,R,ugm-3,7.40042,R,ugm-3,50.54110,R,ugm-3
08-01-2016,06:00,0.25196,R,ugm-3,10.27204,R,ugm-3,10.65836,R,ugm-3,48.84476,R,ugm-3
08-01-2016,07:00,0.97165,R,ugm-3,13.97225,R,ugm-3,15.46208,R,ugm-3,48.19616,R,ugm-3
08-01-2016,08:00,1.58314,R,ugm-3,15.68633,R,ugm-3,18.11377,R,ugm-3,50.39143,R,ugm-3
08-01-2016,09:00,2.01501,R,ugm-3,16.84578,R,ugm-3,19.93542,R,ugm-3,47.49766,R,ugm-3
08-01-2016,10:00,2.77119,R,ugm-3,20.82282,R,ugm-3,25.07192,R,ugm-3,45.70153,R,ugm-3
08-01-2016,11:00,1.79892,R,ugm-3,15.02317,R,ugm-3,17.78147,R,ugm-3,53.13551,R,ugm-3
08-01-2016,12:00,1.97947,R,ugm-3,14.58138,R,ugm-3,17.61652,R,ugm-3,56.12906,R,ugm-3
08-01-2016,13:00,1.18743,R,ugm-3,9.99712,R,ugm-3,11.81782,R,ugm-3,62.26584,R,ugm-3
08-01-2016,14:00,1.15126,R,ugm-3,10.27299,R,ugm-3,12.03823,R,ugm-3,57.22670,R,ugm-3
08-01-2016,15:00,0.86376,R,ugm-3,8.78172,R,ugm-3,10.10613,R,ugm-3,63.71272,R,ugm-3
08-01-2016,16:00,0.61211,R,ugm-3,7.23451,R,ugm-3,8.17307,R,ugm-3,67.25509,R,ugm-3
08-01-2016,17:00,0.46774,R,ugm-3,10.32798,R,ugm-3,11.04517,R,ugm-3,64.06197,R,ugm-3
08-01-2016,18:00,1.97884,R,ugm-3,23.41761,R,ugm-3,26.45179,R,ugm-3,45.15271,R,ugm-3
08-01-2016,19:00,9.10436,R,ugm-3,42.31263,R,ugm-3,56.27244,R,ugm-3,26.39313,R,ugm-3
08-01-2016,20:00,1.83540,R,ugm-3,32.36333,R,ugm-3,35.17757,R,ugm-3,34.42583,R,ugm-3
08-01-2016,21:00,0.93548,R,ugm-3,27.17137,R,ugm-3,28.60574,R,ugm-3,32.43013,R,ugm-3
08-01-2016,22:00,0.32367,R,ugm-3,22.03535,R,ugm-3,22.53164,R,ugm-3,31.93120,R,ugm-3
08-01-2016,23:00,0.50391,R,ugm-3,18.61054,R,ugm-3,19.38319,R,ugm-3,34.82497,R,ugm-3
08-01-2016,24:00,0.43188,R,ugm-3,21.37219,R,ugm-3,22.03439,R,ugm-3,31.93120,R,ugm-3
09-01-2016,01:00,0.48021,R,ugm-3,17.96666,R,ugm-3,18.70298,R,ugm-3,38.51701,R,ugm-3
09-01-2016,02:00,0.43188,R,ugm-3,15.90578,R,ugm-3,16.56799,R,ugm-3,41.51056,R,ugm-3
09-01-2016,03:00,0.43188,R,ugm-3,11.37603,R,ugm-3,12.03823,R,ugm-3,45.25250,R,ugm-3
09-01-2016,04:00,0.32399,R,ugm-3,6.62681,R,ugm-3,7.12358,R,ugm-3,50.44132,R,ugm-3
09-01-2016,05:00,0.17992,R,ugm-3,5.24647,R,ugm-3,5.52234,R,ugm-3,55.63014,R,ugm-3
09-01-2016,06:00,0.39571,R,ugm-3,5.63327,R,ugm-3,6.24001,R,ugm-3,51.83831,R,ugm-3
09-01-2016,07:00,0.53977,R,ugm-3,5.52330,R,ugm-3,6.35093,R,ugm-3,51.78842,R,ugm-3
09-01-2016,08:00,0.89962,R,ugm-3,6.51732,R,ugm-3,7.89671,R,ugm-3,53.68433,R,ugm-3
09-01-2016,09:00,0.97165,R,ugm-3,8.89169,R,ugm-3,10.38153,R,ugm-3,52.53680,R,ugm-3
09-01-2016,10:00,0.68383,R,ugm-3,7.89767,R,ugm-3,8.94620,R,ugm-3,64.26154,R,ugm-3
09-01-2016,11:00,0.75555,R,ugm-3,7.01409,R,ugm-3,8.17259,R,ugm-3,65.50885,R,ugm-3
09-01-2016,12:00,1.36735,R,ugm-3,10.49437,R,ugm-3,12.59094,R,ugm-3,60.66928,R,ugm-3
09-01-2016,13:00,1.04368,R,ugm-3,8.61581,R,ugm-3,10.21610,R,ugm-3,61.51745,R,ugm-3
09-01-2016,14:00,0.79172,R,ugm-3,8.61581,R,ugm-3,9.82977,R,ugm-3,60.61939,R,ugm-3
09-01-2016,15:00,0.61211,R,ugm-3,8.11808,R,ugm-3,9.05664,R,ugm-3,63.16391,R,ugm-3
09-01-2016,16:00,0.35985,R,ugm-3,6.35093,R,ugm-3,6.90269,R,ugm-3,65.20950,R,ugm-3
09-01-2016,17:00,0.46805,R,ugm-3,6.35141,R,ugm-3,7.06908,R,ugm-3,63.46326,R,ugm-3
09-01-2016,18:00,0.39571,R,ugm-3,4.80468,R,ugm-3,5.41142,R,ugm-3,71.14671,R,ugm-3
09-01-2016,19:00,0.28813,R,ugm-3,4.36289,R,ugm-3,4.80468,R,ugm-3,73.54155,R,ugm-3
09-01-2016,20:00,0.32367,R,ugm-3,3.20392,R,ugm-3,3.70021,R,ugm-3,79.77811,R,ugm-3
09-01-2016,21:00,0.61211,R,ugm-3,2.87210,R,ugm-3,3.81066,R,ugm-3,77.73252,R,ugm-3
09-01-2016,22:00,0.17961,R,ugm-3,2.70667,R,ugm-3,2.98207,R,ugm-3,80.42671,R,ugm-3
09-01-2016,23:00,0.28781,R,ugm-3,2.48529,R,ugm-3,2.92660,R,ugm-3,77.43316,R,ugm-3
09-01-2016,24:00,0.35985,R,ugm-3,1.93258,R,ugm-3,2.48434,R,ugm-3,78.68047,R,ugm-3
10-01-2016,01:00,0.33552,R,ugm-3,1.91569,R,ugm-3,2.43015,R,ugm-3,77.83230,R,ugm-3
10-01-2016,02:00,0.39571,R,ugm-3,3.20392,R,ugm-3,3.81066,R,ugm-3,72.99273,R,ugm-3
10-01-2016,03:00,0.28781,R,ugm-3,1.38083,R,ugm-3,1.82213,R,ugm-3,81.17510,R,ugm-3
10-01-2016,04:00,0.46774,R,ugm-3,1.32680,R,ugm-3,2.04398,R,ugm-3,77.43316,R,ugm-3
10-01-2016,05:00,0.17961,R,ugm-3,1.49175,R,ugm-3,1.76715,R,ugm-3,75.18800,R,ugm-3
10-01-2016,06:00,0.39571,R,ugm-3,1.49223,R,ugm-3,2.09897,R,ugm-3,72.54370,R,ugm-3
10-01-2016,07:00,0.19167,R,ugm-3,1.62116,R,ugm-3,1.91505,R,ugm-3,70.99703,R,ugm-3
10-01-2016,08:00,0.25196,R,ugm-3,1.76763,R,ugm-3,2.15395,R,ugm-3,71.39617,R,ugm-3
10-01-2016,09:00,0.32367,R,ugm-3,3.03753,R,ugm-3,3.53382,R,ugm-3,61.36778,R,ugm-3
10-01-2016,10:00,0.82758,R,ugm-3,10.65980,R,ugm-3,11.92874,R,ugm-3,38.61680,R,ugm-3
10-01-2016,11:00,1.47524,R,ugm-3,9.83216,R,ugm-3,12.09417,R,ugm-3,55.92949,R,ugm-3
10-01-2016,12:00,0.50360,R,ugm-3,4.47429,R,ugm-3,5.24647,R,ugm-3,58.97294,R,ugm-3
10-01-2016,13:00,0.61180,R,ugm-3,4.03203,R,ugm-3,4.97011,R,ugm-3,65.30928,R,ugm-3
10-01-2016,14:00,0.79141,R,ugm-3,5.68969,R,ugm-3,6.90317,R,ugm-3,66.05767,R,ugm-3
10-01-2016,15:00,0.64766,R,ugm-3,4.91656,R,ugm-3,5.90963,R,ugm-3,70.44821,R,ugm-3
10-01-2016,16:00,0.46805,R,ugm-3,5.79870,R,ugm-3,6.51637,R,ugm-3,67.40477,R,ugm-3
10-01-2016,17:00,0.39571,R,ugm-3,5.63423,R,ugm-3,6.24097,R,ugm-3,69.79961,R,ugm-3
10-01-2016,18:00,0.43188,R,ugm-3,6.79272,R,ugm-3,7.45493,R,ugm-3,65.15961,R,ugm-3
10-01-2016,19:00,0.53977,R,ugm-3,11.26654,R,ugm-3,12.09417,R,ugm-3,48.14626,R,ugm-3
10-01-2016,20:00,0.43188,R,ugm-3,11.81782,R,ugm-3,12.48002,R,ugm-3,56.22885,R,ugm-3
10-01-2016,21:00,0.35985,R,ugm-3,7.67630,R,ugm-3,8.22805,R,ugm-3,62.86455,R,ugm-3
10-01-2016,22:00,0.32367,R,ugm-3,7.84316,R,ugm-3,8.33946,R,ugm-3,59.67143,R,ugm-3
10-01-2016,23:00,0.25196,R,ugm-3,8.22853,R,ugm-3,8.61486,R,ugm-3,59.27229,R,ugm-3
10-01-2016,24:00,0.46805,R,ugm-3,12.92276,R,ugm-3,13.64043,R,ugm-3,53.63444,R,ugm-3
11-01-2016,01:00,0.28813,R,ugm-3,7.73096,R,ugm-3,8.17275,R,ugm-3,54.01695,R,ugm-3
11-01-2016,02:00,0.53977,R,ugm-3,6.46234,R,ugm-3,7.28997,R,ugm-3,51.48906,R,ugm-3
11-01-2016,03:00,0.28781,R,ugm-3,4.58378,R,ugm-3,5.02509,R,ugm-3,53.63444,R,ugm-3
11-01-2016,04:00,0.35953,R,ugm-3,3.25890,R,ugm-3,3.81018,R,ugm-3,56.17896,R,ugm-3
11-01-2016,05:00,0.43188,R,ugm-3,4.47429,R,ugm-3,5.13650,R,ugm-3,56.62799,R,ugm-3
11-01-2016,06:00,0.35985,R,ugm-3,5.96509,R,ugm-3,6.51684,R,ugm-3,52.58670,R,ugm-3
11-01-2016,07:00,0.57563,R,ugm-3,11.37698,R,ugm-3,12.25960,R,ugm-3,41.76002,R,ugm-3
11-01-2016,08:00,2.41103,R,ugm-3,26.23424,R,ugm-3,29.93110,R,ugm-3,27.09163,R,ugm-3
11-01-2016,09:00,0.86344,R,ugm-3,15.79534,R,ugm-3,17.11927,R,ugm-3,41.71013,R,ugm-3
11-01-2016,10:00,1.36735,R,ugm-3,26.39872,R,ugm-3,28.49529,R,ugm-3,35.22411,R,ugm-3
11-01-2016,11:00,1.40384,R,ugm-3,15.68393,R,ugm-3,17.83645,R,ugm-3,51.78842,R,ugm-3
11-01-2016,12:00,1.00751,R,ugm-3,9.44440,R,ugm-3,10.98923,R,ugm-3,46.69938,R,ugm-3
11-01-2016,13:00,0.86376,R,ugm-3,6.40640,R,ugm-3,7.73080,R,ugm-3,47.94669,R,ugm-3
11-01-2016,14:00,1.04368,R,ugm-3,6.95959,R,ugm-3,8.55987,R,ugm-3,44.15486,R,ugm-3
11-01-2016,15:00,1.47524,R,ugm-3,10.99162,R,ugm-3,13.25363,R,ugm-3,44.55400,R,ugm-3
11-01-2016,16:00,1.25977,R,ugm-3,13.08915,R,ugm-3,15.02078,R,ugm-3,49.19401,R,ugm-3
11-01-2016,17:00,1.22360,R,ugm-3,16.01623,R,ugm-3,17.89239,R,ugm-3,47.74712,R,ugm-3
11-01-2016,18:00,0.61180,R,ugm-3,13.86180,R,ugm-3,14.79988,R,ugm-3,55.38068,R,ugm-3
11-01-2016,19:00,0.35985,R,ugm-3,10.38248,R,ugm-3,10.93424,R,ugm-3,58.37423,R,ugm-3
11-01-2016,20:00,0.50391,R,ugm-3,7.56633,R,ugm-3,8.33898,R,ugm-3,56.02928,R,ugm-3
11-01-2016,21:00,0.35985,R,ugm-3,6.40592,R,ugm-3,6.95768,R,ugm-3,54.43272,R,ugm-3
11-01-2016,22:00,0.39571,R,ugm-3,5.57781,R,ugm-3,6.18455,R,ugm-3,53.23530,R,ugm-3
11-01-2016,23:00,0.28781,R,ugm-3,4.08701,R,ugm-3,4.52832,R,ugm-3,54.78197,R,ugm-3
11-01-2016,24:00,0.32367,R,ugm-3,4.19794,R,ugm-3,4.69423,R,ugm-3,49.64304,R,ugm-3
12-01-2016,01:00,0.62407,R,ugm-3,2.35620,R,ugm-3,3.31309,R,ugm-3,55.74655,R,ugm-3
12-01-2016,02:00,0.79172,R,ugm-3,2.65216,R,ugm-3,3.86612,R,ugm-3,56.87745,R,ugm-3
12-01-2016,03:00,0.71938,R,ugm-3,1.76858,R,ugm-3,2.87162,R,ugm-3,57.32648,R,ugm-3
12-01-2016,04:00,0.68383,R,ugm-3,1.54721,R,ugm-3,2.59574,R,ugm-3,60.17036,R,ugm-3
12-01-2016,05:00,0.64797,R,ugm-3,1.21587,R,ugm-3,2.20942,R,ugm-3,61.56735,R,ugm-3
12-01-2016,06:00,0.79141,R,ugm-3,1.32632,R,ugm-3,2.53980,R,ugm-3,62.91444,R,ugm-3
12-01-2016,07:00,0.86344,R,ugm-3,1.76906,R,ugm-3,3.09299,R,ugm-3,64.86025,R,ugm-3
12-01-2016,08:00,0.97165,R,ugm-3,3.03848,R,ugm-3,4.52832,R,ugm-3,64.56090,R,ugm-3
12-01-2016,09:00,1.07954,R,ugm-3,5.24790,R,ugm-3,6.90317,R,ugm-3,59.92089,R,ugm-3
12-01-2016,10:00,1.22360,R,ugm-3,4.58522,R,ugm-3,6.46138,R,ugm-3,61.61724,R,ugm-3
12-01-2016,11:00,1.18774,R,ugm-3,4.25340,R,ugm-3,6.07458,R,ugm-3,60.27014,R,ugm-3
12-01-2016,12:00,1.24772,R,ugm-3,5.52266,R,ugm-3,7.43580,R,ugm-3,50.79057,R,ugm-3
12-01-2016,13:00,1.77532,R,ugm-3,8.54378,R,ugm-3,11.26590,R,ugm-3,42.70798,R,ugm-3
12-01-2016,14:00,1.11540,R,ugm-3,5.80013,R,ugm-3,7.51039,R,ugm-3,50.34153,R,ugm-3
12-01-2016,15:00,0.93548,R,ugm-3,4.69519,R,ugm-3,6.12956,R,ugm-3,60.76907,R,ugm-3
12-01-2016,16:00,0.97165,R,ugm-3,5.96557,R,ugm-3,7.45540,R,ugm-3,59.72132,R,ugm-3
12-01-2016,17:00,1.00751,R,ugm-3,5.80013,R,ugm-3,7.34496,R,ugm-3,59.82111,R,ugm-3
12-01-2016,18:00,0.54008,R,ugm-3,6.79320,R,ugm-3,7.62131,R,ugm-3,58.02498,R,ugm-3
12-01-2016,19:00,0.64797,R,ugm-3,5.68873,R,ugm-3,6.68228,R,ugm-3,61.81681,R,ugm-3
12-01-2016,20:00,0.54008,R,ugm-3,5.19148,R,ugm-3,6.01959,R,ugm-3,66.55660,R,ugm-3
12-01-2016,21:00,0.43188,R,ugm-3,3.14798,R,ugm-3,3.81018,R,ugm-3,67.45466,R,ugm-3
12-01-2016,22:00,0.32367,R,ugm-3,3.09347,R,ugm-3,3.58976,R,ugm-3,66.10756,R,ugm-3